Flag for China Weather past 2 weeks in Lanzhou, Gansu, China

Now
12 °F

Ice fog.


Feels Like: 6 °F
Forecast: 7 / 38 °F
Wind: 3 mph from Northwest

Location: Lanzhou / Zhongchuan

Current Time: Jan 31, 2015 at 10:15:08 PM

Latest Report: Jan 31, 2015 at 9:00 PM


Visibility: 2 mi

Pressure: 30.15 "Hg

Humidity: 85%

Dew point: 9 °F

Location of LanzhouLocation

Historic Weather in Lanzhou — Graph

°F

Lanzhou temperature yesterday

Maximum temperature yesterday: 23 °F (at 12:00 PM)
Minimum temperature yesterday: 9 °F (at 2:00 AM)
Average temperature yesterday: 17 °F

Past Weeks' High & Low Weather Summary

 TemperatureHumidityPressure
High46 °F (Jan 25, 4:00 PM)93% (Jan 30, 10:00 PM)30.39 "Hg (Jan 30, 10:00 PM)
Low1 °F (Jan 18, 6:00 AM)14% (Jan 21, 5:00 PM)29.71 "Hg (Jan 23, 3:00 PM)
Average21 °F54%30.12 "Hg
* Reported Jan 16 9:00 PM — Jan 31 9:00 PM, Lanzhou, Weather by CustomWeather, © 2014

Note: Actual official high and low records may vary slightly from our data, if they occured in-between our weather recording intervals... More about our weather records

Advertising

Lanzhou weather history for previous 24 hours

 ConditionsComfort  
Time TempWeatherWind HumidityBarometerVisibility
9:00 PM
Jan 31
12 °FIce fog.3 mph85%30.15 "Hg2 mi
8:00 PM14 °FIce fog.3 mph92%30.12 "Hg2 mi
7:00 PM19 °FIce fog.3 mph86%30.09 "Hg2 mi
6:00 PM25 °FIce fog.8 mph74%30.07 "Hg3 mi
5:00 PM25 °FIce fog.1 mph74%30.04 "Hg3 mi
4:00 PM25 °FIce fog.6 mph74%30.04 "Hg3 mi
3:00 PM23 °FLight snow. Ice fog.6 mph74%30.04 "Hg3 mi
2:00 PM23 °FLight snow. Ice fog.6 mph80%30.07 "Hg3 mi
1:00 PM21 °FLight snow. Ice fog.6 mph80%30.09 "Hg2 mi
12:00 PM21 °FLight snow. Ice fog.3 mph80%30.15 "Hg2 mi
11:00 AM19 °FLight snow. Ice fog.3 mph86%30.15 "Hg1 mi
10:00 AM18 °FLight snow. Ice fog.3 mph93%30.15 "Hg2 mi
9:00 AM18 °FLight snow. Ice fog.No wind93%30.15 "Hg1 mi
8:00 AM16 °FLight snow. Ice fog.1 mph93%30.15 "Hg2 mi
7:00 AM12 °FLight snow. Ice fog.1 mph92%30.15 "Hg2 mi
6:00 AM14 °FLight snow. Ice fog.No wind92%30.15 "Hg3 mi
5:00 AM18 °FLight snow. Ice fog.1 mph86%30.15 "Hg3 mi
4:00 AM18 °FLight snow. Ice fog.3 mph86%30.18 "Hg3 mi
3:00 AM16 °FLight snow. Ice fog.No wind86%30.21 "Hg3 mi
2:00 AM16 °FLight snow. Ice fog.1 mph86%30.21 "Hg3 mi
1:00 AM12 °FIce fog.No wind92%30.24 "Hg3 mi
12:00 AM12 °FLight snow. Ice fog.No wind92%30.24 "Hg3 mi
11:00 PM
Jan 30
16 °FLight snow. Ice fog.1 mph86%30.24 "Hg2 mi
10:00 PM18 °FLight snow. Ice fog.3 mph93%30.24 "Hg2 mi
Weather by CustomWeather, © 2014

See weather overviewHow to use our weather pages